• In Hungary
  • List of Countries
  • For 7 days
  • Water Temperature
  • Satellite Maps
  • Weather Map
  • News
  • Weather Widgets
  • user-avatar
    Login

    Hourly Weather Tamir

    Today, 21 October, Saturday

    Time Temperature Precipitation Wind Pressure Humidity
    00:00 +1°C° 0 mm 1 mps 680 mmHg 81%
    01:00 +1°C° 0 mm 1 mps 680 mmHg 80%
    02:00 +1°C° 0.1 mm 1 mps 680 mmHg 78%
    03:00 +1°C° 0.1 mm 1 mps 680 mmHg 77%
    04:00 +1°C° 0.1 mm 1 mps 680 mmHg 76%
    05:00 +1°C° 0.2 mm 1 mps 680 mmHg 76%
    06:00 +2°C° 0.2 mm 1 mps 680 mmHg 76%
    07:00 +1°C° 0.2 mm 0 mps 681 mmHg 76%
    08:00 +3°C° 0.3 mm 1 mps 681 mmHg 75%
    09:00 +3°C° 0.3 mm 1 mps 681 mmHg 74%
    10:00 +4°C° 0.3 mm 1 mps 681 mmHg 73%
    11:00 +4°C° 0.2 mm 1 mps 682 mmHg 73%
    12:00 +4°C° 0.2 mm 1 mps 682 mmHg 74%
    13:00 +4°C° 0.2 mm 2 mps 682 mmHg 75%
    14:00 +4°C° 0.1 mm 1 mps 682 mmHg 77%
    15:00 +4°C° 0.1 mm 1 mps 682 mmHg 79%
    16:00 +4°C° 0.1 mm 1 mps 682 mmHg 82%
    17:00 +3°C° 0 mm 1 mps 683 mmHg 84%
    18:00 +1°C° 0 mm 1 mps 683 mmHg 87%
    19:00 0°C° 0 mm 1 mps 683 mmHg 90%
    20:00 0°C° 0 mm 1 mps 683 mmHg 91%
    21:00 0°C° 0 mm 1 mps 684 mmHg 91%
    22:00 0°C° 0 mm 1 mps 684 mmHg 91%
    23:00 -1°C° 0 mm 1 mps 684 mmHg 92%

    Tomorrow, 22 October, Sunday

    Time Temperature Precipitation Wind Pressure Humidity
    00:00 -1°C° 0 mm 1 mps 684 mmHg 92%
    01:00 -3°C° 0 mm 2 mps 684 mmHg 92%
    02:00 -3°C° 0 mm 2 mps 684 mmHg 92%
    03:00 -3°C° 0 mm 2 mps 684 mmHg 91%
    04:00 -3°C° 0 mm 2 mps 684 mmHg 91%
    05:00 -3°C° 0 mm 2 mps 684 mmHg 90%
    06:00 -3°C° 0 mm 2 mps 684 mmHg 89%
    07:00 -3°C° 0 mm 2 mps 684 mmHg 88%
    08:00 +1°C° 0 mm 2 mps 685 mmHg 80%
    09:00 +3°C° 0 mm 2 mps 685 mmHg 72%
    10:00 +4°C° 0 mm 3 mps 685 mmHg 64%
    11:00 +5°C° 0 mm 3 mps 684 mmHg 60%
    12:00 +7°C° 0 mm 3 mps 683 mmHg 56%
    13:00 +8°C° 0 mm 3 mps 683 mmHg 52%
    14:00 +7°C° 0 mm 3 mps 682 mmHg 58%
    15:00 +6°C° 0 mm 2 mps 682 mmHg 63%
    16:00 +5°C° 0 mm 2 mps 682 mmHg 68%
    17:00 +4°C° 0 mm 2 mps 682 mmHg 72%
    18:00 +3°C° 0 mm 2 mps 682 mmHg 76%
    19:00 +1°C° 0 mm 2 mps 682 mmHg 80%
    20:00 +1°C° 0 mm 2 mps 681 mmHg 79%
    21:00 +1°C° 0 mm 2 mps 681 mmHg 78%
    22:00 -1°C° 0 mm 2 mps 681 mmHg 77%
    23:00 -1°C° 0 mm 2 mps 681 mmHg 76%

    Day after tomorrow, 23 October, Monday

    Time Temperature Precipitation Wind Pressure Humidity
    00:00 -1°C° 0 mm 2 mps 680 mmHg 74%
    01:00 -1°C° 0 mm 2 mps 680 mmHg 72%
    02:00 -1°C° 0 mm 2 mps 680 mmHg 71%
    03:00 -1°C° 0 mm 2 mps 679 mmHg 69%
    04:00 -1°C° 0 mm 2 mps 679 mmHg 68%
    05:00 -1°C° 0 mm 2 mps 679 mmHg 68%
    06:00 -1°C° 0 mm 2 mps 679 mmHg 68%
    07:00 -1°C° 0 mm 2 mps 679 mmHg 68%
    08:00 +1°C° 0 mm 3 mps 679 mmHg 62%
    09:00 +3°C° 0 mm 3 mps 679 mmHg 55%
    10:00 +7°C° 0 mm 3 mps 679 mmHg 49%
    11:00 +8°C° 0 mm 3 mps 679 mmHg 48%
    12:00 +8°C° 0 mm 3 mps 678 mmHg 47%
    13:00 +9°C° 0 mm 3 mps 678 mmHg 46%
    14:00 +8°C° 0 mm 2 mps 678 mmHg 52%
    15:00 +8°C° 0 mm 1 mps 678 mmHg 58%
    16:00 +7°C° 0 mm 1 mps 678 mmHg 63%
    17:00 +5°C° 0 mm 1 mps 679 mmHg 67%
    18:00 +4°C° 0 mm 1 mps 679 mmHg 71%
    19:00 +2°C° 0 mm 0 mps 680 mmHg 75%
    20:00 +1°C° 0 mm 0 mps 680 mmHg 75%
    21:00 +1°C° 0 mm 0 mps 681 mmHg 76%
    22:00 +1°C° 0 mm 0 mps 681 mmHg 77%
    23:00 0°C° 0 mm 0 mps 682 mmHg 77%

    24 October, Tuesday

    Time Temperature Precipitation Wind Pressure Humidity
    00:00 0°C° 0 mm 0 mps 682 mmHg 78%
    01:00 0°C° 0 mm 0 mps 682 mmHg 79%
    02:00 0°C° 0 mm 0 mps 682 mmHg 80%
    03:00 -1°C° 0 mm 0 mps 682 mmHg 81%
    04:00 -1°C° 0 mm 0 mps 682 mmHg 83%
    05:00 -1°C° 0 mm 0 mps 683 mmHg 83%
    06:00 -1°C° 0 mm 0 mps 683 mmHg 84%
    07:00 -1°C° 0 mm 0 mps 683 mmHg 85%
    08:00 +1°C° 0 mm 0 mps 684 mmHg 77%
    09:00 +3°C° 0 mm 0 mps 684 mmHg 70%
    10:00 +5°C° 0 mm 0 mps 684 mmHg 62%
    11:00 +7°C° 0 mm 1 mps 684 mmHg 60%
    12:00 +8°C° 0 mm 1 mps 684 mmHg 58%
    13:00 +8°C° 0 mm 1 mps 683 mmHg 56%
    14:00 +7°C° 0 mm 1 mps 683 mmHg 61%
    15:00 +6°C° 0 mm 1 mps 683 mmHg 66%
    16:00 +6°C° 0 mm 1 mps 683 mmHg 70%
    17:00 +4°C° 0 mm 1 mps 683 mmHg 74%
    18:00 +3°C° 0 mm 1 mps 683 mmHg 79%
    19:00 +1°C° 0 mm 0 mps 684 mmHg 83%
    20:00 0°C° 0 mm 0 mps 684 mmHg 84%
    21:00 0°C° 0 mm 0 mps 684 mmHg 85%
    22:00 0°C° 0 mm 0 mps 684 mmHg 86%
    23:00 +1°C° 0 mm 1 mps 684 mmHg 86%

    25 October, Wednesday

    Time Temperature Precipitation Wind Pressure Humidity
    00:00 0°C° 0 mm 1 mps 684 mmHg 87%
    01:00 0°C° 0 mm 1 mps 683 mmHg 88%
    02:00 0°C° 0 mm 1 mps 683 mmHg 88%
    03:00 0°C° 0 mm 1 mps 683 mmHg 88%
    04:00 0°C° 0 mm 1 mps 683 mmHg 89%
    05:00 0°C° 0 mm 1 mps 683 mmHg 88%
    06:00 0°C° 0 mm 1 mps 683 mmHg 87%
    07:00 0°C° 0 mm 1 mps 683 mmHg 87%
    08:00 +2°C° 0 mm 1 mps 683 mmHg 77%
    09:00 +4°C° 0 mm 1 mps 683 mmHg 67%
    10:00 +7°C° 0 mm 1 mps 683 mmHg 57%
    11:00 +7°C° 0 mm 2 mps 683 mmHg 54%
    12:00 +8°C° 0 mm 2 mps 682 mmHg 50%
    13:00 +9°C° 0 mm 2 mps 682 mmHg 46%
    14:00 +7°C° 0 mm 2 mps 681 mmHg 52%
    15:00 +7°C° 0 mm 1 mps 681 mmHg 57%
    16:00 +6°C° 0 mm 1 mps 681 mmHg 62%
    17:00 +5°C° 0 mm 1 mps 681 mmHg 66%
    18:00 +4°C° 0 mm 1 mps 681 mmHg 70%
    19:00 +2°C° 0 mm 1 mps 681 mmHg 74%
    20:00 +2°C° 0 mm 1 mps 681 mmHg 76%
    21:00 +2°C° 0 mm 1 mps 681 mmHg 77%
    22:00 +1°C° 0 mm 1 mps 681 mmHg 79%
    23:00 +1°C° 0 mm 1 mps 681 mmHg 80%

    26 October, Thursday

    Time Temperature Precipitation Wind Pressure Humidity
    00:00 +1°C° 0 mm 1 mps 681 mmHg 81%
    01:00 +1°C° 0 mm 1 mps 681 mmHg 81%
    02:00 0°C° 0 mm 1 mps 681 mmHg 82%
    03:00 0°C° 0 mm 1 mps 681 mmHg 82%
    04:00 0°C° 0 mm 1 mps 681 mmHg 82%
    05:00 0°C° 0 mm 1 mps 681 mmHg 81%
    06:00 0°C° 0 mm 1 mps 681 mmHg 80%
    07:00 0°C° 0 mm 1 mps 681 mmHg 79%
    08:00 +2°C° 0 mm 2 mps 680 mmHg 71%
    09:00 +4°C° 0 mm 2 mps 680 mmHg 62%
    10:00 +6°C° 0 mm 2 mps 680 mmHg 53%
    11:00 +7°C° 0 mm 2 mps 680 mmHg 50%
    12:00 +8°C° 0 mm 2 mps 679 mmHg 47%
    13:00 +9°C° 0 mm 3 mps 679 mmHg 44%
    14:00 +8°C° 0 mm 2 mps 678 mmHg 50%
    15:00 +7°C° 0 mm 2 mps 678 mmHg 55%
    16:00 +6°C° 0 mm 2 mps 677 mmHg 60%
    17:00 +4°C° 0 mm 2 mps 677 mmHg 65%
    18:00 +4°C° 0 mm 1 mps 677 mmHg 69%
    19:00 +3°C° 0 mm 1 mps 677 mmHg 73%
    20:00 +2°C° 0 mm 1 mps 677 mmHg 74%
    21:00 +2°C° 0 mm 1 mps 677 mmHg 75%
    22:00 +2°C° 0 mm 1 mps 677 mmHg 75%
    23:00 +1°C° 0 mm 1 mps 677 mmHg 75%
    Show more